Year,Month,Day,Hour,Minute,Value (Times are PST for temperature in C)
2008,07,15,00,00,10.70
2008,07,15,00,01,10.70
2008,07,15,00,02,10.80
2008,07,15,00,03,10.80
2008,07,15,00,04,10.80
2008,07,15,00,05,10.80
2008,07,15,00,06,10.80
2008,07,15,00,07,10.70
2008,07,15,00,08,10.70
2008,07,15,00,09,10.70
2008,07,15,00,10,10.70
2008,07,15,00,11,10.70
2008,07,15,00,12,10.70
2008,07,15,00,13,10.70
2008,07,15,00,14,10.70
2008,07,15,00,15,10.70
2008,07,15,00,16,10.60
2008,07,15,00,17,10.60
2008,07,15,00,18,10.60
2008,07,15,00,19,10.60
2008,07,15,00,20,10.60
2008,07,15,00,21,10.60
2008,07,15,00,22,10.60
2008,07,15,00,23,10.60
2008,07,15,00,24,10.50
2008,07,15,00,25,10.40
2008,07,15,00,26,10.40
2008,07,15,00,27,10.40
2008,07,15,00,28,10.40
2008,07,15,00,29,10.40
2008,07,15,00,30,10.50
2008,07,15,00,31,10.60
2008,07,15,00,32,10.60
2008,07,15,00,33,10.70
2008,07,15,00,34,10.80
2008,07,15,00,35,10.80
2008,07,15,00,36,10.90
2008,07,15,00,37,10.90
2008,07,15,00,38,10.90
2008,07,15,00,39,10.90
2008,07,15,00,40,10.90
2008,07,15,00,41,10.80
2008,07,15,00,42,10.70
2008,07,15,00,43,10.60
2008,07,15,00,44,10.60
2008,07,15,00,45,10.60
2008,07,15,00,46,10.60
2008,07,15,00,47,10.60
2008,07,15,00,48,10.60
2008,07,15,00,49,10.40
2008,07,15,00,50,10.40
2008,07,15,00,51,10.40
2008,07,15,00,52,10.40
2008,07,15,00,53,10.40
2008,07,15,00,54,10.40
2008,07,15,00,55,10.40
2008,07,15,00,56,10.40
2008,07,15,00,57,10.40
2008,07,15,00,58,10.30
2008,07,15,00,59,10.30
2008,07,15,01,00,10.30
2008,07,15,01,01,10.30
2008,07,15,01,02,10.30
2008,07,15,01,03,10.20
2008,07,15,01,04,10.20
2008,07,15,01,05,10.20
2008,07,15,01,06,10.10
2008,07,15,01,07,10.10
2008,07,15,01,08,10.10
2008,07,15,01,09,10.00
2008,07,15,01,10,9.90
2008,07,15,01,11,9.90
2008,07,15,01,12,9.90
2008,07,15,01,13,9.80
2008,07,15,01,14,9.80
2008,07,15,01,15,9.70
2008,07,15,01,16,9.70
2008,07,15,01,17,9.70
2008,07,15,01,18,9.70
2008,07,15,01,19,9.70
2008,07,15,01,20,9.70
2008,07,15,01,21,9.70
2008,07,15,01,22,9.70
2008,07,15,01,23,9.70
2008,07,15,01,24,9.70
2008,07,15,01,25,9.70
2008,07,15,01,26,9.70
2008,07,15,01,27,9.70
2008,07,15,01,28,9.70
2008,07,15,01,29,9.70
2008,07,15,01,30,9.70
2008,07,15,01,31,9.70
2008,07,15,01,32,9.70
2008,07,15,01,33,9.70
2008,07,15,01,34,9.70
2008,07,15,01,35,9.70
2008,07,15,01,36,9.70
2008,07,15,01,37,9.80
2008,07,15,01,38,9.80
2008,07,15,01,39,9.80
2008,07,15,01,40,9.80
2008,07,15,01,41,9.80
2008,07,15,01,42,9.80
2008,07,15,01,43,9.80
2008,07,15,01,44,9.80
2008,07,15,01,45,9.80
2008,07,15,01,46,9.80
2008,07,15,01,47,9.70
2008,07,15,01,48,9.70
2008,07,15,01,49,9.70
2008,07,15,01,50,9.60
2008,07,15,01,51,9.50
2008,07,15,01,52,9.40
2008,07,15,01,53,9.40
2008,07,15,01,54,9.30
2008,07,15,01,55,9.40
2008,07,15,01,56,9.40
2008,07,15,01,57,9.40
2008,07,15,01,58,9.40
2008,07,15,01,59,9.40
2008,07,15,02,00,9.40
2008,07,15,02,01,9.40
2008,07,15,02,02,9.40
2008,07,15,02,03,9.40
2008,07,15,02,04,9.40
2008,07,15,02,05,9.30
2008,07,15,02,06,9.20
2008,07,15,02,07,9.20
2008,07,15,02,08,9.10
2008,07,15,02,09,9.10
2008,07,15,02,10,9.00
2008,07,15,02,11,9.00
2008,07,15,02,12,9.00
2008,07,15,02,13,8.90
2008,07,15,02,14,8.90
2008,07,15,02,15,8.90
2008,07,15,02,16,8.90
2008,07,15,02,17,8.90
2008,07,15,02,18,8.90
2008,07,15,02,19,8.80
2008,07,15,02,20,8.80
2008,07,15,02,21,8.80
2008,07,15,02,22,8.80
2008,07,15,02,23,8.80
2008,07,15,02,24,8.80
2008,07,15,02,25,8.80
2008,07,15,02,26,8.80
2008,07,15,02,27,8.70
2008,07,15,02,28,8.70
2008,07,15,02,29,8.70
2008,07,15,02,30,8.70
2008,07,15,02,31,8.70
2008,07,15,02,32,8.70
2008,07,15,02,33,8.70
2008,07,15,02,34,8.70
2008,07,15,02,35,8.70
2008,07,15,02,36,8.70
2008,07,15,02,37,8.70
2008,07,15,02,38,8.70
2008,07,15,02,39,8.70
2008,07,15,02,40,8.70
2008,07,15,02,41,8.70
2008,07,15,02,42,8.70
2008,07,15,02,43,8.70
2008,07,15,02,44,8.70
2008,07,15,02,45,8.70
2008,07,15,02,46,8.70
2008,07,15,02,47,8.70
2008,07,15,02,48,8.80
2008,07,15,02,49,8.80
2008,07,15,02,50,8.90
2008,07,15,02,51,8.90
2008,07,15,02,52,9.00
2008,07,15,02,53,9.00
2008,07,15,02,54,9.10
2008,07,15,02,55,9.10
2008,07,15,02,56,9.10
2008,07,15,02,57,9.10
2008,07,15,02,58,9.10
2008,07,15,02,59,9.10
2008,07,15,03,00,9.00
2008,07,15,03,01,8.90
2008,07,15,03,02,8.90
2008,07,15,03,03,8.80
2008,07,15,03,04,8.70
2008,07,15,03,05,8.70
2008,07,15,03,06,8.70
2008,07,15,03,07,8.70
2008,07,15,03,08,8.70
2008,07,15,03,09,8.70
2008,07,15,03,10,8.70
2008,07,15,03,11,8.70
2008,07,15,03,12,8.70
2008,07,15,03,13,8.70
2008,07,15,03,14,8.70
2008,07,15,03,15,8.70
2008,07,15,03,16,8.70
2008,07,15,03,17,8.70
2008,07,15,03,18,8.70
2008,07,15,03,19,8.70
2008,07,15,03,20,8.80
2008,07,15,03,21,8.80
2008,07,15,03,22,8.80
2008,07,15,03,23,8.90
2008,07,15,03,24,8.90
2008,07,15,03,25,9.00
2008,07,15,03,26,9.00
2008,07,15,03,27,9.00
2008,07,15,03,28,9.10
2008,07,15,03,29,9.10
2008,07,15,03,30,9.20
2008,07,15,03,31,9.20
2008,07,15,03,32,9.20
2008,07,15,03,33,9.20
2008,07,15,03,34,9.30
2008,07,15,03,35,9.30
2008,07,15,03,36,9.40
2008,07,15,03,37,9.50
2008,07,15,03,38,9.50
2008,07,15,03,39,9.60
2008,07,15,03,40,9.50
2008,07,15,03,41,9.50
2008,07,15,03,42,9.40
2008,07,15,03,43,9.30
2008,07,15,03,44,9.20
2008,07,15,03,45,9.00
2008,07,15,03,46,8.80
2008,07,15,03,47,8.70
2008,07,15,03,48,8.60
2008,07,15,03,49,8.50
2008,07,15,03,50,8.40
2008,07,15,03,51,8.30
2008,07,15,03,52,8.20
2008,07,15,03,53,8.20
2008,07,15,03,54,8.20
2008,07,15,03,55,8.20
2008,07,15,03,56,8.10
2008,07,15,03,57,8.10
2008,07,15,03,58,8.00
2008,07,15,03,59,8.00
2008,07,15,04,00,8.00
2008,07,15,04,01,8.00
2008,07,15,04,02,7.90
2008,07,15,04,03,7.90
2008,07,15,04,04,7.90
2008,07,15,04,05,7.90
2008,07,15,04,06,7.90
2008,07,15,04,07,7.90
2008,07,15,04,08,7.80
2008,07,15,04,09,7.80
2008,07,15,04,10,7.80
2008,07,15,04,11,7.80
2008,07,15,04,12,7.80
2008,07,15,04,13,7.80
2008,07,15,04,14,7.80
2008,07,15,04,15,7.80
2008,07,15,04,16,7.80
2008,07,15,04,17,7.80
2008,07,15,04,18,7.80
2008,07,15,04,19,7.80
2008,07,15,04,20,7.80
2008,07,15,04,21,7.80
2008,07,15,04,22,7.80
2008,07,15,04,23,7.90
2008,07,15,04,24,7.90
2008,07,15,04,25,7.90
2008,07,15,04,26,7.90
2008,07,15,04,27,7.90
2008,07,15,04,28,7.90
2008,07,15,04,29,7.90
2008,07,15,04,30,7.90
2008,07,15,04,31,8.00
2008,07,15,04,32,8.00
2008,07,15,04,33,8.00
2008,07,15,04,34,8.00
2008,07,15,04,35,8.00
2008,07,15,04,36,8.00
2008,07,15,04,37,8.00
2008,07,15,04,38,8.10
2008,07,15,04,39,8.10
2008,07,15,04,40,8.10
2008,07,15,04,41,8.10
2008,07,15,04,42,8.10
2008,07,15,04,43,8.10
2008,07,15,04,44,8.10
2008,07,15,04,45,8.00
2008,07,15,04,46,8.00
2008,07,15,04,47,8.00
2008,07,15,04,48,7.90
2008,07,15,04,49,7.90
2008,07,15,04,50,7.80
2008,07,15,04,51,7.80
2008,07,15,04,52,7.80
2008,07,15,04,53,7.90
2008,07,15,04,54,7.90
2008,07,15,04,55,7.90
2008,07,15,04,56,7.90
2008,07,15,04,57,7.90
2008,07,15,04,58,7.90
2008,07,15,04,59,7.90
2008,07,15,05,00,7.80
2008,07,15,05,01,7.80
2008,07,15,05,02,7.80
2008,07,15,05,03,7.80
2008,07,15,05,04,7.80
2008,07,15,05,05,7.80
2008,07,15,05,06,7.80
2008,07,15,05,07,7.80
2008,07,15,05,08,7.80
2008,07,15,05,09,7.80
2008,07,15,05,10,7.80
2008,07,15,05,11,7.80
2008,07,15,05,12,7.70
2008,07,15,05,13,7.70
2008,07,15,05,14,7.70
2008,07,15,05,15,7.70
2008,07,15,05,16,7.70
2008,07,15,05,17,7.60
2008,07,15,05,18,7.60
2008,07,15,05,19,7.60
2008,07,15,05,20,7.50
2008,07,15,05,21,7.50
2008,07,15,05,22,7.50
2008,07,15,05,23,7.60
2008,07,15,05,24,7.50
2008,07,15,05,25,7.50
2008,07,15,05,26,7.50
2008,07,15,05,27,7.50
2008,07,15,05,28,7.50
2008,07,15,05,29,7.50
2008,07,15,05,30,7.60
2008,07,15,05,31,7.60
2008,07,15,05,32,7.70
2008,07,15,05,33,7.70
2008,07,15,05,34,7.80
2008,07,15,05,35,7.80
2008,07,15,05,36,7.80
2008,07,15,05,37,7.80
2008,07,15,05,38,7.90
2008,07,15,05,39,7.90
2008,07,15,05,40,7.90
2008,07,15,05,41,7.90
2008,07,15,05,42,8.00
2008,07,15,05,43,8.00
2008,07,15,05,44,8.00
2008,07,15,05,45,8.00
2008,07,15,05,46,8.00
2008,07,15,05,47,8.10
2008,07,15,05,48,8.10
2008,07,15,05,49,8.10
2008,07,15,05,50,8.10
2008,07,15,05,51,8.10
2008,07,15,05,52,8.00
2008,07,15,05,53,8.00
2008,07,15,05,54,7.90
2008,07,15,05,55,7.90
2008,07,15,05,56,7.90
2008,07,15,05,57,7.80
2008,07,15,05,58,7.80
2008,07,15,05,59,7.80
2008,07,15,06,00,7.80
2008,07,15,06,01,7.80
2008,07,15,06,02,7.80
2008,07,15,06,03,7.70
2008,07,15,06,04,7.70
2008,07,15,06,05,7.70
2008,07,15,06,06,7.70
2008,07,15,06,07,7.70
2008,07,15,06,08,7.70
2008,07,15,06,09,7.70
2008,07,15,06,10,7.80
2008,07,15,06,11,7.80
2008,07,15,06,12,7.80
2008,07,15,06,13,7.80
2008,07,15,06,14,7.80
2008,07,15,06,15,7.80
2008,07,15,06,16,7.80
2008,07,15,06,17,7.80
2008,07,15,06,18,7.80
2008,07,15,06,19,7.90
2008,07,15,06,20,7.90
2008,07,15,06,21,8.00
2008,07,15,06,22,8.00
2008,07,15,06,23,8.10
2008,07,15,06,24,8.20
2008,07,15,06,25,8.20
2008,07,15,06,26,8.20
2008,07,15,06,27,8.30
2008,07,15,06,28,8.30
2008,07,15,06,29,8.30
2008,07,15,06,30,8.30
2008,07,15,06,31,8.40
2008,07,15,06,32,8.40
2008,07,15,06,33,8.50
2008,07,15,06,34,8.50
2008,07,15,06,35,8.50
2008,07,15,06,36,8.60
2008,07,15,06,37,8.60
2008,07,15,06,38,8.60
2008,07,15,06,39,8.60
2008,07,15,06,40,8.60
2008,07,15,06,41,8.70
2008,07,15,06,42,8.70
2008,07,15,06,43,8.70
2008,07,15,06,44,8.70
2008,07,15,06,45,8.70
2008,07,15,06,46,8.70
2008,07,15,06,47,8.70
2008,07,15,06,48,8.80
2008,07,15,06,49,8.80
2008,07,15,06,50,8.90
2008,07,15,06,51,8.90
2008,07,15,06,52,9.00
2008,07,15,06,53,9.00
2008,07,15,06,54,9.10
2008,07,15,06,55,9.20
2008,07,15,06,56,9.30
2008,07,15,06,57,9.40
2008,07,15,06,58,9.60
2008,07,15,06,59,9.70
2008,07,15,07,00,9.90
2008,07,15,07,01,10.10
2008,07,15,07,02,10.30
2008,07,15,07,03,10.40
2008,07,15,07,04,10.60
2008,07,15,07,05,10.80
2008,07,15,07,06,10.90
2008,07,15,07,07,11.10
2008,07,15,07,08,11.20
2008,07,15,07,09,11.30
2008,07,15,07,10,11.40
2008,07,15,07,11,11.40
2008,07,15,07,12,11.50
2008,07,15,07,13,11.60
2008,07,15,07,14,11.70
2008,07,15,07,15,11.80
2008,07,15,07,16,11.90
2008,07,15,07,17,12.00
2008,07,15,07,18,12.10
2008,07,15,07,19,12.30
2008,07,15,07,20,12.40
2008,07,15,07,21,12.50
2008,07,15,07,22,12.60
2008,07,15,07,23,12.80
2008,07,15,07,24,12.80
2008,07,15,07,25,12.90
2008,07,15,07,26,13.00
2008,07,15,07,27,13.10
2008,07,15,07,28,13.20
2008,07,15,07,29,13.20
2008,07,15,07,30,13.30
2008,07,15,07,31,13.40
2008,07,15,07,32,13.50
2008,07,15,07,33,13.60
2008,07,15,07,34,13.70
2008,07,15,07,35,13.70
2008,07,15,07,36,13.80
2008,07,15,07,37,13.90
2008,07,15,07,38,14.00
2008,07,15,07,39,14.10
2008,07,15,07,40,14.20
2008,07,15,07,41,14.20
2008,07,15,07,42,14.20
2008,07,15,07,43,14.20
2008,07,15,07,44,14.30
2008,07,15,07,45,14.30
2008,07,15,07,46,14.40
2008,07,15,07,47,14.40
2008,07,15,07,48,14.40
2008,07,15,07,49,14.40
2008,07,15,07,50,14.30
2008,07,15,07,51,14.30
2008,07,15,07,52,14.30
2008,07,15,07,53,14.40
2008,07,15,07,54,14.40
2008,07,15,07,55,14.40
2008,07,15,07,56,14.50
2008,07,15,07,57,14.50
2008,07,15,07,58,14.60
2008,07,15,07,59,14.60
2008,07,15,08,00,14.60
2008,07,15,08,01,14.70
2008,07,15,08,02,14.80
2008,07,15,08,03,14.90
2008,07,15,08,04,14.90
2008,07,15,08,05,14.90
2008,07,15,08,06,14.90
2008,07,15,08,07,14.90
2008,07,15,08,08,14.90
2008,07,15,08,09,14.90
2008,07,15,08,10,15.00
2008,07,15,08,11,15.00
2008,07,15,08,12,15.10
2008,07,15,08,13,15.10
2008,07,15,08,14,15.20
2008,07,15,08,15,15.20
2008,07,15,08,16,15.20
2008,07,15,08,17,15.10
2008,07,15,08,18,15.10
2008,07,15,08,19,15.10
2008,07,15,08,20,15.10
2008,07,15,08,21,15.10
2008,07,15,08,22,15.10
2008,07,15,08,23,15.10
2008,07,15,08,24,15.20
2008,07,15,08,25,15.20
2008,07,15,08,26,15.30
2008,07,15,08,27,15.30
2008,07,15,08,28,15.30
2008,07,15,08,29,15.40
2008,07,15,08,30,15.50
2008,07,15,08,31,15.50
2008,07,15,08,32,15.60
2008,07,15,08,33,15.70
2008,07,15,08,34,15.70
2008,07,15,08,35,15.70
2008,07,15,08,36,15.70
2008,07,15,08,37,15.70
2008,07,15,08,38,15.70
2008,07,15,08,39,15.70
2008,07,15,08,40,15.70
2008,07,15,08,41,15.80
2008,07,15,08,42,15.80
2008,07,15,08,43,15.80
2008,07,15,08,44,15.80
2008,07,15,08,45,15.80
2008,07,15,08,46,15.80
2008,07,15,08,47,15.80
2008,07,15,08,48,15.80
2008,07,15,08,49,15.80
2008,07,15,08,50,15.80
2008,07,15,08,51,15.80
2008,07,15,08,52,15.90
2008,07,15,08,53,15.90
2008,07,15,08,54,15.90
2008,07,15,08,55,15.90
2008,07,15,08,56,15.90
2008,07,15,08,57,15.80
2008,07,15,08,58,15.80
2008,07,15,08,59,15.80
2008,07,15,09,00,15.80
2008,07,15,09,01,15.80
2008,07,15,09,02,15.70
2008,07,15,09,03,15.60
2008,07,15,09,04,15.60
2008,07,15,09,05,15.60
2008,07,15,09,06,15.50
2008,07,15,09,07,15.50
2008,07,15,09,08,15.50
2008,07,15,09,09,15.50
2008,07,15,09,10,15.50
2008,07,15,09,11,15.60
2008,07,15,09,12,15.70
2008,07,15,09,13,15.80
2008,07,15,09,14,15.80
2008,07,15,09,15,15.90
2008,07,15,09,16,16.10
2008,07,15,09,17,16.10
2008,07,15,09,18,16.10
2008,07,15,09,19,16.20
2008,07,15,09,20,16.20
2008,07,15,09,21,16.20
2008,07,15,09,22,16.10
2008,07,15,09,23,16.10
2008,07,15,09,24,16.10
2008,07,15,09,25,16.10
2008,07,15,09,26,16.10
2008,07,15,09,27,16.10
2008,07,15,09,28,16.10
2008,07,15,09,29,16.10
2008,07,15,09,30,16.10
2008,07,15,09,31,16.10
2008,07,15,09,32,16.20
2008,07,15,09,33,16.30
2008,07,15,09,34,16.40
2008,07,15,09,35,16.40
2008,07,15,09,36,16.60
2008,07,15,09,37,16.70
2008,07,15,09,38,16.70
2008,07,15,09,39,16.70
2008,07,15,09,40,16.80
2008,07,15,09,41,16.90
2008,07,15,09,42,16.90
2008,07,15,09,43,16.90
2008,07,15,09,44,16.90
2008,07,15,09,45,16.90
2008,07,15,09,46,16.90
2008,07,15,09,47,16.90
2008,07,15,09,48,17.00
2008,07,15,09,49,17.00
2008,07,15,09,50,17.00
2008,07,15,09,51,17.10
2008,07,15,09,52,17.20
2008,07,15,09,53,17.20
2008,07,15,09,54,17.20
2008,07,15,09,55,17.30
2008,07,15,09,56,17.40
2008,07,15,09,57,17.40
2008,07,15,09,58,17.40
2008,07,15,09,59,17.50
2008,07,15,10,00,17.50
2008,07,15,10,01,17.50
2008,07,15,10,02,17.50
2008,07,15,10,03,17.50
2008,07,15,10,04,17.50
2008,07,15,10,05,17.40
2008,07,15,10,06,17.40
2008,07,15,10,07,17.30
2008,07,15,10,08,17.30
2008,07,15,10,09,17.30
2008,07,15,10,10,17.30
2008,07,15,10,11,17.30
2008,07,15,10,12,17.20
2008,07,15,10,13,17.20
2008,07,15,10,14,17.20
2008,07,15,10,15,17.20
2008,07,15,10,16,17.20
2008,07,15,10,17,17.30
2008,07,15,10,18,17.40
2008,07,15,10,19,17.50
2008,07,15,10,20,17.50
2008,07,15,10,21,17.60
2008,07,15,10,22,17.60
2008,07,15,10,23,17.60
2008,07,15,10,24,17.60
2008,07,15,10,25,17.50
2008,07,15,10,26,17.50
2008,07,15,10,27,17.40
2008,07,15,10,28,17.40
2008,07,15,10,29,17.30
2008,07,15,10,30,17.30
2008,07,15,10,31,17.20
2008,07,15,10,32,17.20
2008,07,15,10,33,17.20
2008,07,15,10,34,17.20
2008,07,15,10,35,17.20
2008,07,15,10,36,17.30
2008,07,15,10,37,17.30
2008,07,15,10,38,17.40
2008,07,15,10,39,17.40
2008,07,15,10,40,17.50
2008,07,15,10,41,17.50
2008,07,15,10,42,17.40
2008,07,15,10,43,17.30
2008,07,15,10,44,17.30
2008,07,15,10,45,17.40
2008,07,15,10,46,17.50
2008,07,15,10,47,17.60
2008,07,15,10,48,17.70
2008,07,15,10,49,17.70
2008,07,15,10,50,17.80
2008,07,15,10,51,17.70
2008,07,15,10,52,17.70
2008,07,15,10,53,17.50
2008,07,15,10,54,17.50
2008,07,15,10,55,17.50
2008,07,15,10,56,17.50
2008,07,15,10,57,17.60
2008,07,15,10,58,17.60
2008,07,15,10,59,17.70
2008,07,15,11,00,17.70
2008,07,15,11,01,17.70
2008,07,15,11,02,17.70
2008,07,15,11,03,17.80
2008,07,15,11,04,17.80
2008,07,15,11,05,17.80
2008,07,15,11,06,17.80
2008,07,15,11,07,17.80
2008,07,15,11,08,17.80
2008,07,15,11,09,17.90
2008,07,15,11,10,17.90
2008,07,15,11,11,17.90
2008,07,15,11,12,18.00
2008,07,15,11,13,18.10
2008,07,15,11,14,18.00
2008,07,15,11,15,17.90
2008,07,15,11,16,17.90
2008,07,15,11,17,17.90
2008,07,15,11,18,17.90
2008,07,15,11,19,17.90
2008,07,15,11,20,17.90
2008,07,15,11,21,17.90
2008,07,15,11,22,17.90
2008,07,15,11,23,17.80
2008,07,15,11,24,17.80
2008,07,15,11,25,17.80
2008,07,15,11,26,17.80
2008,07,15,11,27,17.80
2008,07,15,11,28,17.90
2008,07,15,11,29,17.80
2008,07,15,11,30,17.70
2008,07,15,11,31,17.60
2008,07,15,11,32,17.60
2008,07,15,11,33,17.60
2008,07,15,11,34,17.50
2008,07,15,11,35,17.50
2008,07,15,11,36,17.40
2008,07,15,11,37,17.30
2008,07,15,11,38,17.30
2008,07,15,11,39,17.30
2008,07,15,11,40,17.30
2008,07,15,11,41,17.30
2008,07,15,11,42,17.40
2008,07,15,11,43,17.50
2008,07,15,11,44,17.60
2008,07,15,11,45,17.70
2008,07,15,11,46,17.70
2008,07,15,11,47,17.60
2008,07,15,11,48,17.60
2008,07,15,11,49,17.50
2008,07,15,11,50,17.40
2008,07,15,11,51,17.40
2008,07,15,11,52,17.30
2008,07,15,11,53,17.30
2008,07,15,11,54,17.30
2008,07,15,11,55,17.30
2008,07,15,11,56,17.50
2008,07,15,11,57,17.70
2008,07,15,11,58,17.80
2008,07,15,11,59,17.90
2008,07,15,12,00,18.00
2008,07,15,12,01,18.20
2008,07,15,12,02,18.20
2008,07,15,12,03,18.20
2008,07,15,12,04,18.20
2008,07,15,12,05,18.40
2008,07,15,12,06,18.50
2008,07,15,12,07,18.60
2008,07,15,12,08,18.70
2008,07,15,12,09,18.80
2008,07,15,12,10,18.80
2008,07,15,12,11,18.90
2008,07,15,12,12,18.90
2008,07,15,12,13,19.00
2008,07,15,12,14,19.10
2008,07,15,12,15,19.20
2008,07,15,12,16,19.20
2008,07,15,12,17,19.30
2008,07,15,12,18,19.30
2008,07,15,12,19,19.30
2008,07,15,12,20,19.20
2008,07,15,12,21,19.10
2008,07,15,12,22,18.90
2008,07,15,12,23,18.90
2008,07,15,12,24,18.80
2008,07,15,12,25,18.80
2008,07,15,12,26,18.90
2008,07,15,12,27,18.90
2008,07,15,12,28,19.10
2008,07,15,12,29,19.10
2008,07,15,12,30,19.00
2008,07,15,12,31,19.00
2008,07,15,12,32,19.10
2008,07,15,12,33,19.10
2008,07,15,12,34,19.30
2008,07,15,12,35,19.50
2008,07,15,12,36,19.70
2008,07,15,12,37,19.90
2008,07,15,12,38,20.10
2008,07,15,12,39,20.30
2008,07,15,12,40,20.40
2008,07,15,12,41,20.50
2008,07,15,12,42,20.50
2008,07,15,12,43,20.70
2008,07,15,12,44,20.60
2008,07,15,12,45,20.60
2008,07,15,12,46,20.70
2008,07,15,12,47,20.70
2008,07,15,12,48,20.90
2008,07,15,12,49,21.00
2008,07,15,12,50,21.20
2008,07,15,12,51,21.30
2008,07,15,12,52,21.30
2008,07,15,12,53,21.50
2008,07,15,12,54,21.60
2008,07,15,12,55,21.60
2008,07,15,12,56,21.60
2008,07,15,12,57,21.60
2008,07,15,12,58,21.70
2008,07,15,12,59,21.70
2008,07,15,13,00,21.80
2008,07,15,13,01,21.90
2008,07,15,13,02,21.90
2008,07,15,13,03,21.90
2008,07,15,13,04,21.90
2008,07,15,13,05,22.00
2008,07,15,13,06,22.20
2008,07,15,13,07,22.30
2008,07,15,13,08,22.30
2008,07,15,13,09,22.20
2008,07,15,13,10,22.10
2008,07,15,13,11,21.90
2008,07,15,13,12,21.80
2008,07,15,13,13,21.80
2008,07,15,13,14,21.90
2008,07,15,13,15,21.90
2008,07,15,13,16,21.80
2008,07,15,13,17,21.80
2008,07,15,13,18,21.80
2008,07,15,13,19,21.80
2008,07,15,13,20,21.90
2008,07,15,13,21,21.90
2008,07,15,13,22,21.90
2008,07,15,13,23,21.80
2008,07,15,13,24,21.80
2008,07,15,13,25,21.90
2008,07,15,13,26,21.90
2008,07,15,13,27,22.00
2008,07,15,13,28,22.00
2008,07,15,13,29,21.90
2008,07,15,13,30,21.90
2008,07,15,13,31,21.80
2008,07,15,13,32,21.80
2008,07,15,13,33,21.80
2008,07,15,13,34,21.70
2008,07,15,13,35,21.70
2008,07,15,13,36,21.70
2008,07,15,13,37,21.70
2008,07,15,13,38,21.70
2008,07,15,13,39,21.90
2008,07,15,13,40,21.90
2008,07,15,13,41,21.90
2008,07,15,13,42,21.80
2008,07,15,13,43,21.70
2008,07,15,13,44,21.60
2008,07,15,13,45,21.30
2008,07,15,13,46,21.20
2008,07,15,13,47,21.20
2008,07,15,13,48,21.20
2008,07,15,13,49,21.20
2008,07,15,13,50,21.10
2008,07,15,13,51,21.10
2008,07,15,13,52,21.20
2008,07,15,13,53,21.20
2008,07,15,13,54,21.30
2008,07,15,13,55,21.40
2008,07,15,13,56,21.50
2008,07,15,13,57,21.60
2008,07,15,13,58,21.60
2008,07,15,13,59,21.60
2008,07,15,14,00,21.60
2008,07,15,14,01,21.60
2008,07,15,14,02,21.60
2008,07,15,14,03,21.60
2008,07,15,14,04,21.60
2008,07,15,14,05,21.40
2008,07,15,14,06,21.40
2008,07,15,14,07,21.40
2008,07,15,14,08,21.40
2008,07,15,14,09,21.50
2008,07,15,14,10,21.60
2008,07,15,14,11,21.70
2008,07,15,14,12,21.80
2008,07,15,14,13,21.90
2008,07,15,14,14,22.00
2008,07,15,14,15,22.00
2008,07,15,14,16,22.10
2008,07,15,14,17,22.10
2008,07,15,14,18,22.10
2008,07,15,14,19,22.00
2008,07,15,14,20,22.00
2008,07,15,14,21,21.90
2008,07,15,14,22,21.90
2008,07,15,14,23,21.90
2008,07,15,14,24,21.90
2008,07,15,14,25,21.90
2008,07,15,14,26,21.90
2008,07,15,14,27,21.90
2008,07,15,14,28,21.90
2008,07,15,14,29,22.00
2008,07,15,14,30,22.10
2008,07,15,14,31,22.20
2008,07,15,14,32,22.20
2008,07,15,14,33,22.10
2008,07,15,14,34,22.10
2008,07,15,14,35,22.00
2008,07,15,14,36,22.00
2008,07,15,14,37,22.10
2008,07,15,14,38,22.10
2008,07,15,14,39,22.10
2008,07,15,14,40,22.10
2008,07,15,14,41,22.10
2008,07,15,14,42,22.00
2008,07,15,14,43,22.00
2008,07,15,14,44,22.00
2008,07,15,14,45,22.10
2008,07,15,14,46,22.00
2008,07,15,14,47,22.00
2008,07,15,14,48,22.10
2008,07,15,14,49,22.10
2008,07,15,14,50,22.10
2008,07,15,14,51,22.00
2008,07,15,14,52,21.90
2008,07,15,14,53,21.70
2008,07,15,14,54,21.60
2008,07,15,14,55,21.60
2008,07,15,14,56,21.50
2008,07,15,14,57,21.40
2008,07,15,14,58,21.30
2008,07,15,14,59,21.30
2008,07,15,15,00,21.30
2008,07,15,15,01,21.30
2008,07,15,15,02,21.40
2008,07,15,15,03,21.40
2008,07,15,15,04,21.40
2008,07,15,15,05,21.30
2008,07,15,15,06,21.20
2008,07,15,15,07,21.10
2008,07,15,15,08,21.00
2008,07,15,15,09,21.10
2008,07,15,15,10,21.10
2008,07,15,15,11,21.10
2008,07,15,15,12,21.00
2008,07,15,15,13,21.00
2008,07,15,15,14,21.00
2008,07,15,15,15,21.00
2008,07,15,15,16,21.00
2008,07,15,15,17,21.00
2008,07,15,15,18,21.00
2008,07,15,15,19,21.00
2008,07,15,15,20,21.00
2008,07,15,15,21,21.00
2008,07,15,15,22,20.90
2008,07,15,15,23,20.90
2008,07,15,15,24,20.90
2008,07,15,15,25,20.80
2008,07,15,15,26,20.70
2008,07,15,15,27,20.60
2008,07,15,15,28,20.60
2008,07,15,15,29,20.70
2008,07,15,15,30,20.70
2008,07,15,15,31,20.70
2008,07,15,15,32,20.80
2008,07,15,15,33,20.90
2008,07,15,15,34,20.80
2008,07,15,15,35,20.70
2008,07,15,15,36,20.80
2008,07,15,15,37,20.70
2008,07,15,15,38,20.80
2008,07,15,15,39,20.80
2008,07,15,15,40,20.80
2008,07,15,15,41,20.80
2008,07,15,15,42,20.80
2008,07,15,15,43,20.90
2008,07,15,15,44,21.00
2008,07,15,15,45,20.90
2008,07,15,15,46,20.90
2008,07,15,15,47,20.80
2008,07,15,15,48,20.80
2008,07,15,15,49,20.80
2008,07,15,15,50,20.80
2008,07,15,15,51,20.80
2008,07,15,15,52,20.80
2008,07,15,15,53,20.70
2008,07,15,15,54,20.40
2008,07,15,15,55,20.20
2008,07,15,15,56,20.00
2008,07,15,15,57,19.90
2008,07,15,15,58,19.70
2008,07,15,15,59,19.50
2008,07,15,16,00,19.30
2008,07,15,16,01,19.30
2008,07,15,16,02,19.20
2008,07,15,16,03,19.10
2008,07,15,16,04,19.10
2008,07,15,16,05,19.20
2008,07,15,16,06,19.30
2008,07,15,16,07,19.40
2008,07,15,16,08,19.40
2008,07,15,16,09,19.40
2008,07,15,16,10,19.30
2008,07,15,16,11,19.30
2008,07,15,16,12,19.30
2008,07,15,16,13,19.30
2008,07,15,16,14,19.10
2008,07,15,16,15,19.00
2008,07,15,16,16,18.90
2008,07,15,16,17,18.90
2008,07,15,16,18,18.90
2008,07,15,16,19,18.90
2008,07,15,16,20,18.70
2008,07,15,16,21,18.60
2008,07,15,16,22,18.50
2008,07,15,16,23,18.40
2008,07,15,16,24,18.40
2008,07,15,16,25,18.40
2008,07,15,16,26,18.40
2008,07,15,16,27,18.40
2008,07,15,16,28,18.50
2008,07,15,16,29,18.50
2008,07,15,16,30,18.60
2008,07,15,16,31,18.60
2008,07,15,16,32,18.70
2008,07,15,16,33,18.70
2008,07,15,16,34,18.80
2008,07,15,16,35,18.90
2008,07,15,16,36,18.90
2008,07,15,16,37,18.90
2008,07,15,16,38,18.90
2008,07,15,16,39,19.00
2008,07,15,16,40,19.10
2008,07,15,16,41,19.10
2008,07,15,16,42,19.10
2008,07,15,16,43,19.10
2008,07,15,16,44,19.20
2008,07,15,16,45,19.30
2008,07,15,16,46,19.30
2008,07,15,16,47,19.30
2008,07,15,16,48,19.40
2008,07,15,16,49,19.50
2008,07,15,16,50,19.50
2008,07,15,16,51,19.60
2008,07,15,16,52,19.70
2008,07,15,16,53,19.80
2008,07,15,16,54,19.70
2008,07,15,16,55,19.80
2008,07,15,16,56,19.90
2008,07,15,16,57,19.90
2008,07,15,16,58,20.00
2008,07,15,16,59,20.10
2008,07,15,17,00,20.20
2008,07,15,17,01,20.30
2008,07,15,17,02,20.30
2008,07,15,17,03,20.40
2008,07,15,17,04,20.40
2008,07,15,17,05,20.50
2008,07,15,17,06,20.50
2008,07,15,17,07,20.60
2008,07,15,17,08,20.70
2008,07,15,17,09,20.90
2008,07,15,17,10,21.00
2008,07,15,17,11,21.00
2008,07,15,17,12,21.10
2008,07,15,17,13,21.10
2008,07,15,17,14,21.20
2008,07,15,17,15,21.10
2008,07,15,17,16,21.20
2008,07,15,17,17,21.20
2008,07,15,17,18,21.30
2008,07,15,17,19,21.30
2008,07,15,17,20,21.30
2008,07,15,17,21,21.30
2008,07,15,17,22,21.20
2008,07,15,17,23,21.20
2008,07,15,17,24,21.20
2008,07,15,17,25,21.20
2008,07,15,17,26,21.10
2008,07,15,17,27,21.10
2008,07,15,17,28,21.10
2008,07,15,17,29,21.20
2008,07,15,17,30,21.30
2008,07,15,17,31,21.30
2008,07,15,17,32,21.30
2008,07,15,17,33,21.40
2008,07,15,17,34,21.50